This is the latest recevied weather packets stored in our database for station/object WP3OF-2. If no packets are shown the sender has not sent any weather packets the latest 10 day(s).
| Time | Temp. | Humidity | Pressure | Rain* | Wind** | Luminosity | Snow |
|---|---|---|---|---|---|---|---|
| 1778100902 | 23.33° C | 87% | 1026 hPa | 0 mm | - | 348 W/m² | - |
| 1778100597 | 23.33° C | 86% | 1026 hPa | 0 mm | - | 373 W/m² | - |
| 1778100296 | 23.33° C | 84% | 1026 hPa | 0 mm | - | 394 W/m² | - |
| 1778099988 | 23.33° C | 82% | 1026 hPa | 0 mm | - | 422 W/m² | - |
| 1778099685 | 23.33° C | 83% | 1026 hPa | 0 mm | - | 436 W/m² | - |
| 1778099382 | 23.89° C | 81% | 1026 hPa | 0 mm | - | 445 W/m² | - |
| 1778099079 | 23.89° C | 81% | 1026 hPa | 0 mm | - | 462 W/m² | - |
| 1778098775 | 23.89° C | 81% | 1026 hPa | 0 mm | - | 477 W/m² | - |
| 1778098473 | 23.89° C | 82% | 1026 hPa | 0 mm | - | 492 W/m² | - |
| 1778098169 | 23.89° C | 80% | 1026 hPa | 0 mm | - | 508 W/m² | - |
| 1778097866 | 23.33° C | 81% | 1026 hPa | 0 mm | - | 526 W/m² | - |
| 1778097562 | 23.89° C | 78% | 1026 hPa | 0 mm | - | 541 W/m² | - |
| 1778097259 | 23.89° C | 78% | 1026.3 hPa | 0 mm | - | 555 W/m² | - |
| 1778096956 | 23.89° C | 77% | 1026.3 hPa | 0 mm | - | 566 W/m² | - |
| 1778096653 | 23.89° C | 80% | 1026 hPa | 0 mm | - | 579 W/m² | - |
| 1778096350 | 23.89° C | 79% | 1026.3 hPa | 0 mm | - | 592 W/m² | - |
| 1778096047 | 23.89° C | 77% | 1026.3 hPa | 0 mm | - | 608 W/m² | - |
| 1778095743 | 23.89° C | 78% | 1026 hPa | 0 mm | - | 619 W/m² | - |
| 1778095440 | 23.89° C | 79% | 1026 hPa | 0 mm | - | 632 W/m² | - |
| 1778095137 | 23.89° C | 78% | 1026.7 hPa | 0 mm | - | 639 W/m² | - |
| 1778094833 | 23.89° C | 77% | 1026.3 hPa | 0 mm | - | 650 W/m² | - |
| 1778094530 | 23.89° C | 79% | 1026.7 hPa | 0 mm | - | 661 W/m² | - |
| 1778094226 | 23.89° C | 78% | 1026.3 hPa | 0 mm | - | 680 W/m² | - |
| 1778093918 | 23.89° C | 78% | 1026.3 hPa | 0 mm | - | 685 W/m² | - |
| 1778093615 | 23.89° C | 79% | 1026.7 hPa | 0 mm | - | 693 W/m² | - |
* Rain latest hour (hover to see other rain measurements)
** Current wind speed in m/s (hover to see current wind gust speed)